CZ-2C DEB (43520 NORAD) Tracking and Keplerian Element Data

This shows tracking and keplerian element data for the satellite.

Feedback or suggestion? Click here.




ElementValue
Catalog43520
NameCZ-2C DEB
Epoch Orbit439
Epoch Day206.79347837
Epoch Year2018
RAAN120.9812
Inclination35.0027
Eccentricity0.0009424
Argument of Perigee207.7283
Mean Anonmoly152.2951
Mean Motion15.28942189
Decay Rate3.819E-05
L11 43520U 18054C 18206.79347837 .00003819 00000-0 13358-3 0 9991
L22 43520 35.0027 120.9812 0009424 207.7283 152.2951 15.28942189 4394

Live tracking and technical data element details for CZ-2C DEB (NORAD 43520). CZ-2C DEB can be tracked NOW for your location showing map with azimuth and elevation plus other details from your city location.

Track the satellite on the map from your city or location and see movement details for azimuth, elevation, latitude, longitude, range, height, and movement on the map or in text.







IsCatalogInMostPopularTable: catalog: 43520, numindb: 41
Update: records affected: 1



GetName: 43520 CZ-2C DEB

Hit Count: updated at: Sat, 17 Nov 2018 03:07:41 GMT